Starlink 4101

operational
NORAD ID: 53142 Int'l Des: 2022-083 Owner: SPXS Country: US Constellation: starlink
LEOCIRCULAR

Über Starlink 4101

Beschreibung wird geladen...

Live-Position

3D-Globus wird geladen...

Nächste Überflüge

Höhenverlauf

Altitude vs Time

uPlot chart will show altitude changes over time

Zweizeiliger Elementsatz

1 53142U 22083L 25353.90049551 -.00000141 00000-0 92265-5 0 9997
2 53142 53.2167 172.2783 0001426 89.2579 270.8577 15.08837835189185
Epoch: 19. Dez. 2025 • Age: 17 hours

Aktueller Status

Höhe 559.3 km
Geschwindigkeit 7.58 km/s
Subsatellitenpunkt -53.23°S, 123.69°E
Startdatum 17. Juli 2022
Alter 3.4 years
Typ internet

Technische Details

Klassifizierung Payload
Masse 297.00 kg
Trockenmasse 275.00 kg
Gesamtmasse 297.00 kg
Länge 0.20 m
Durchmesser 2.80 m
Spannweite 9.00 m
Form Box + pan
Hersteller SPXS
Bus-Typ Starlink
Phasenstatus In Orbit
Besitzer/Staat SPXS/US

Große Konstellationen

Loading constellations...